User: anonymous   Login
Location: Unspecified
(0.0000°N, 0.0000°E)
Time: 14:51:30
(UTC+02:00)
Language:

Cosmos 773 Rocket - Orbit

View from above orbital plane
View from above orbital plane
View from above satellite
View from above satellite

Ground track
Ground track

The orbit data is extracted from the following two-line orbital elements,

1 08344U 75094B   16180.84197608  .00000029  00000-0  17751-4 0  9999
2 08344  74.0577  56.7035 0021140  44.9659 315.3202 14.39057882134856
Epoch (UTC): 28 June 2016 20:12:26
Eccentricity: 0.0021140
inclination: 74.0577°
perigee height: 746 km
apogee height: 777 km
right ascension of ascending node: 56.7035°
argument of perigee: 44.9659°
revolutions per day: 14.39057882
mean anomaly at epoch: 315.3202°
orbit number at epoch: 13485

The dashed part of the orbit path shows where the satellite is in the earth's shadow,  

DLR